Regional Weather Roundup
Issued by NWS

Home | Current Version | Previous Version | Text Only | Print | Product List | Glossary Off
Versions: 1 2 3 4 5 6 7 8 9 10 11 12 13 14 15 16 17 18 19 20 21 22 23 24 25 26 27 28 29 30 31 32 33 34 35 36 37 38 39 40 41 42 43 44 45 46 47 48 49 50

000
ASUS43 KFSD 261102
RWRSD

WEATHER ROUNDUP FOR SOUTH DAKOTA
NATIONAL WEATHER SERVICE SIOUX FALLS SD
500 AM CST MON JAN 26 2015

NOTE: "FAIR" INDICATES FEW OR NO CLOUDS BELOW 12,000 FEET WITH NO
SIGNIFICANT WEATHER AND/OR OBSTRUCTIONS TO VISIBILITY.


SDZ001>005-009-010-012>017-261200-
NORTHWEST AND NORTH CENTRAL SOUTH DAKOTA

CITY           SKY/WX    TMP DP  RH WIND       PRES   REMARKS
BUFFALO          N/A     36  30  79 W10       29.89R
FAITH            N/A     40  31  70 W20       29.91R
MOBRIDGE       CLEAR     38  33  82 NW10      29.83R
$$

SDZ012>016-024>037-041>051-057-063-072>074-261200-
SOUTHWEST AND SOUTH CENTRAL SOUTH DAKOTA

CITY           SKY/WX    TMP DP  RH WIND       PRES   REMARKS
RAPID CTY ARPT CLEAR     49  28  44 NW9       29.98R
PIERRE         CLEAR     39  33  79 W15       29.86R
CUSTER         CLEAR     40  26  57 W9        30.06R
ELLSWORTH AFB  CLEAR     52  29  41 NW18      29.97R
PHILIP         CLEAR     44  32  62 W16       29.92S
PINE RIDGE     CLEAR     39  29  67 VRB3      30.04R
WINNER         FAIR      45  33  63 W17       29.90R
$$

SDZ004>011-016>023-039-040-261200-
NORTHEAST SOUTH DAKOTA

CITY           SKY/WX    TMP DP  RH WIND       PRES   REMARKS
ABERDEEN       PTCLDY    37  31  78 NW12      29.78R
WATERTOWN      MOCLDY    34  30  85 W6        29.75S WCI  29
SISSETON         N/A     38  33  82 NW18      29.69F
$$

SDZ017-020-022-023-036>040-048>070-261200-
SOUTHEAST SOUTH DAKOTA

CITY           SKY/WX    TMP DP  RH WIND       PRES   REMARKS
SIOUX FALLS    PTCLDY    33  29  85 SW7       29.78F WCI  27
HURON          MOCLDY    33  29  85 W7        29.80R WCI  27
MITCHELL       CLEAR     37  31  78 NW13      29.82S
YANKTON        CLEAR     34  28  80 W7        29.83F WCI  28
$$

ABBREVIATIONS USED IN REMARKS
   TC - TEMPERATURE IN CELSIUS
  WCI - WIND CHILL INDEX
   HX - HEAT INDEX
  VSB - VISIBILITY



USA.gov is the U.S. government's official web portal to all federal, state and local government web resources and services.